Home   Weather   Oftringen   Past weeks

Flag for Switzerland Past Weather in Oftringen, Aargau, Switzerland — Yesterday and Last 2 Weeks

Now
31 °F

Chilly.


Feels Like: 28 °F
Forecast: 27 / 51 °F
Wind: 3 mph from Southwest

Location: Wynau

Current Time: Dec 9, 2016 at 8:34:11 pm

Latest Report: Dec 9, 2016 at 7:00 pm


Visibility: N/A

Pressure: 30.55 "Hg

Humidity: 100%

Dew Point: 31 °F

Location of OftringenLocation

Past Weather in Oftringen — Graph

°F

Oftringen Temperature Yesterday

Maximum temperature yesterday: 34 °F (at 3:00 pm)
Minimum temperature yesterday: 29 °F (at 12:00 am)
Average temperature yesterday: 31 °F

High & Low Weather Summary for the Past Weeks

 TemperatureHumidityPressure
High48 °F (Nov 27, 2:00 pm)100% (Nov 30, 10:00 pm)30.70 "Hg (Nov 30, 10:00 pm)
Low23 °F (Nov 30, 5:00 am)50% (Nov 28, 4:00 pm)29.85 "Hg (Nov 25, 6:00 am)
Average34 °F89%30.34 "Hg
* Reported Nov 24 7:00 pm — Dec 9 7:00 pm, Oftringen, Weather by CustomWeather, © 2016

Note: Actual official high and low records may vary slightly from our data, if they occured in-between our weather recording intervals... More about our weather records

Advertising

Oftringen Weather History for the Previous 24 Hours

Scroll right to see more
 ConditionsComfort  
Time TempWeatherWind HumidityBarometerVisibility
7:00 pm
Fri, Dec 9
31 °FChilly.3 mph100%30.55 "HgN/A
6:00 pm32 °FChilly.1 mph98%30.56 "HgN/A
5:00 pm32 °FChilly.No wind97%30.56 "HgN/A
4:00 pm34 °FChilly.No wind95%30.56 "HgN/A
1:00 pm33 °FChilly.1 mph88%30.60 "HgN/A
12:00 pm31 °FChilly.1 mph90%30.62 "HgN/A
11:00 am28 °FChilly.2 mph96%30.64 "HgN/A
10:00 am27 °FChilly.2 mph99%30.65 "HgN/A
9:00 am27 °FChilly.5 mph97%30.65 "HgN/A
8:00 am27 °FChilly.3 mph99%30.64 "HgN/A
7:00 am27 °FChilly.5 mph98%30.64 "HgN/A
6:00 am28 °FChilly.2 mph100%30.64 "HgN/A
5:00 am28 °FChilly.3 mph99%30.64 "HgN/A
4:00 am28 °FChilly.5 mph99%30.64 "HgN/A
3:00 am29 °FChilly.3 mph99%30.64 "HgN/A
2:00 am29 °FChilly.5 mph99%30.64 "HgN/A
1:00 am30 °FChilly.5 mph98%30.64 "HgN/A
12:00 am30 °FChilly.5 mph98%30.65 "HgN/A
11:00 pm
Thu, Dec 8
30 °FChilly.5 mph98%30.65 "HgN/A
10:00 pm30 °FChilly.5 mph97%30.64 "HgN/A
9:00 pm31 °FChilly.2 mph98%30.63 "HgN/A
8:00 pm32 °FChilly.3 mph96%30.63 "HgN/A
Weather by CustomWeather, © 2016

See weather overviewHow to use our weather pages